UAE49K VOBL-OMDB

Flight info

Callsign UAE49K
Flight time N/A
Altitude 40000
Route OPAMO8A OPAMO P574 PAROK Q899 ITURA M762 VAXAS/N0376F240 M762 MIVEK P574 IMPED
Aircraft B772/H-SDE2E3FGHIJ5LORVWXY/LB1D1

Departure

Time N/A
Airport Kempegowda International Airport Bengaluru (VOBL)

Arrival

Time 2026-05-06 16:55
Airport Dubai International Airport (OMDB)
Time Latitude Longitude Altitude Speed Heading
2026-05-06 16:34 24.33294 56.78198 27848 ft 385 kts 305°
2026-05-06 16:34 24.34901 56.75872 27379 ft 382 kts 305°
2026-05-06 16:34 24.36499 56.73557 26920 ft 379 kts 305°
2026-05-06 16:35 24.38085 56.71257 26490 ft 377 kts 306°
2026-05-06 16:35 24.39663 56.68969 26041 ft 375 kts 306°
2026-05-06 16:35 24.41234 56.66691 25607 ft 373 kts 306°
2026-05-06 16:35 24.42799 56.64422 25173 ft 372 kts 306°
2026-05-06 16:36 24.44452 56.62232 24704 ft 372 kts 311°
2026-05-06 16:36 24.46218 56.60169 24287 ft 371 kts 312°
2026-05-06 16:36 24.47995 56.58117 23853 ft 370 kts 313°
2026-05-06 16:36 24.49770 56.56067 23416 ft 370 kts 313°
2026-05-06 16:37 24.51537 56.54018 22940 ft 369 kts 313°
2026-05-06 16:37 24.53273 56.52001 22487 ft 367 kts 313°
2026-05-06 16:37 24.55019 56.49965 22048 ft 365 kts 313°
2026-05-06 16:37 24.56752 56.47942 21601 ft 355 kts 313°
2026-05-06 16:38 24.58405 56.46010 20898 ft 340 kts 313°
2026-05-06 16:38 24.60026 56.44114 20091 ft 344 kts 313°
2026-05-06 16:38 24.61663 56.42198 19720 ft 343 kts 314°
2026-05-06 16:38 24.63286 56.40297 19472 ft 338 kts 314°
2026-05-06 16:39 24.64882 56.38429 19190 ft 333 kts 314°
2026-05-06 16:39 24.66464 56.36575 18824 ft 332 kts 314°
2026-05-06 16:39 24.68046 56.34722 18396 ft 333 kts 314°
2026-05-06 16:39 24.69636 56.32858 17987 ft 334 kts 314°
2026-05-06 16:40 24.71267 56.31067 17536 ft 329 kts 323°
2026-05-06 16:40 24.73234 56.29791 17056 ft 328 kts 339°
2026-05-06 16:40 24.75403 56.29057 16692 ft 325 kts 346°
2026-05-06 16:40 24.77574 56.28430 16326 ft 322 kts 346°
2026-05-06 16:41 24.79732 56.27802 15973 ft 317 kts 344°
2026-05-06 16:41 24.81703 56.26737 15457 ft 321 kts 323°
2026-05-06 16:41 24.83233 56.24941 14973 ft 325 kts 304°
2026-05-06 16:41 24.84305 56.22738 14540 ft 327 kts 297°
2026-05-06 16:42 24.85297 56.20468 14080 ft 329 kts 297°
2026-05-06 16:42 24.86252 56.18242 13924 ft 321 kts 297°
2026-05-06 16:42 24.87202 56.16030 13975 ft 318 kts 297°
2026-05-06 16:42 24.88152 56.13836 13998 ft 318 kts 297°
2026-05-06 16:43 24.89100 56.11660 13748 ft 309 kts 297°
2026-05-06 16:43 24.90025 56.09543 12962 ft 303 kts 297°
2026-05-06 16:43 24.90946 56.07446 12131 ft 310 kts 297°
2026-05-06 16:43 24.91890 56.05304 11724 ft 310 kts 296°
2026-05-06 16:44 24.92826 56.03179 11413 ft 307 kts 296°
2026-05-06 16:44 24.93754 56.01072 11077 ft 305 kts 295°
2026-05-06 16:44 24.94679 55.98970 10773 ft 303 kts 295°
2026-05-06 16:44 24.95588 55.96903 10563 ft 297 kts 295°
2026-05-06 16:45 24.96478 55.94882 10383 ft 290 kts 295°
2026-05-06 16:45 24.97356 55.92884 10120 ft 287 kts 295°
2026-05-06 16:45 24.98213 55.90936 9822 ft 285 kts 294°
2026-05-06 16:45 24.99059 55.89012 9173 ft 276 kts 294°
2026-05-06 16:46 24.99897 55.87102 8331 ft 281 kts 295°
2026-05-06 16:46 25.00757 55.85139 7879 ft 286 kts 295°
2026-05-06 16:46 25.01630 55.83150 7446 ft 289 kts 295°
2026-05-06 16:46 25.02504 55.81158 7170 ft 286 kts 295°
2026-05-06 16:47 25.03376 55.79168 6715 ft 290 kts 295°
2026-05-06 16:47 25.04240 55.77197 6305 ft 277 kts 296°
2026-05-06 16:47 25.05061 55.75322 5961 ft 271 kts 296°
2026-05-06 16:47 25.05863 55.73492 5629 ft 257 kts 296°
2026-05-06 16:48 25.06601 55.71805 5631 ft 246 kts 296°
2026-05-06 16:48 25.07345 55.70107 5540 ft 243 kts 296°
2026-05-06 16:48 25.08073 55.68445 5431 ft 239 kts 296°
2026-05-06 16:48 25.08790 55.66805 5327 ft 236 kts 296°
2026-05-06 16:49 25.09502 55.65176 5125 ft 234 kts 296°
2026-05-06 16:49 25.10212 55.63557 4768 ft 235 kts 297°
2026-05-06 16:49 25.11037 55.61984 4393 ft 239 kts 303°
2026-05-06 16:49 25.11945 55.60450 4112 ft 238 kts 303°
2026-05-06 16:50 25.12823 55.58930 3782 ft 233 kts 302°
2026-05-06 16:50 25.13652 55.57449 3476 ft 218 kts 302°
2026-05-06 16:50 25.14421 55.56062 3209 ft 208 kts 302°
2026-05-06 16:50 25.15166 55.54716 2954 ft 203 kts 302°
2026-05-06 16:51 25.15890 55.53409 2706 ft 197 kts 302°
2026-05-06 16:51 25.16595 55.52137 2463 ft 191 kts 302°
2026-05-06 16:51 25.17271 55.50915 2226 ft 180 kts 302°
2026-05-06 16:51 25.17906 55.49769 2001 ft 170 kts 302°
2026-05-06 16:52 25.18491 55.48711 1813 ft 154 kts 302°
2026-05-06 16:52 25.19030 55.47739 1650 ft 146 kts 303°
2026-05-06 16:52 25.19562 55.46779 1452 ft 145 kts 302°
2026-05-06 16:52 25.20089 55.45829 1270 ft 146 kts 303°
2026-05-06 16:53 25.20607 55.44884 1091 ft 144 kts 302°
2026-05-06 16:53 25.21117 55.43952 935 ft 141 kts 302°
2026-05-06 16:53 25.21625 55.43002 763 ft 146 kts 303°
2026-05-06 16:53 25.22172 55.42036 578 ft 146 kts 304°
2026-05-06 16:54 25.22680 55.41102 378 ft 137 kts 303°
2026-05-06 16:54 25.23213 55.40171 241 ft 149 kts 302°
2026-05-06 16:54 25.23736 55.39220 42 ft 138 kts 303°
2026-05-06 16:54 25.24188 55.38418 36 ft 103 kts 302°
2026-05-06 16:55 25.24485 55.37877 34 ft 74 kts 301°
2026-05-06 16:55 25.24720 55.37459 32 ft 49 kts 300°
2026-05-06 16:55 25.24775 55.37270 34 ft 13 kts 276°
2026-05-06 16:55 25.24782 55.37175 32 ft 13 kts 273°
2026-05-06 16:56 25.24786 55.37089 30 ft 8 kts 273°
2026-05-06 16:56 25.24789 55.37030 29 ft 9 kts 273°
2026-05-06 16:56 25.24747 55.36935 27 ft 17 kts 206°
2026-05-06 16:56 25.24645 55.36872 29 ft 17 kts 210°
2026-05-06 16:57 25.24544 55.36803 30 ft 18 kts 212°
2026-05-06 16:57 25.24433 55.36723 31 ft 19 kts 222°
2026-05-06 16:57 25.24375 55.36593 28 ft 19 kts 264°
2026-05-06 16:57 25.24399 55.36449 28 ft 19 kts 292°
2026-05-06 16:58 25.24467 55.36326 30 ft 19 kts 303°
2026-05-06 16:58 25.24540 55.36205 29 ft 19 kts 303°
2026-05-06 16:58 25.24575 55.36144 30 ft 19 kts 300°
2026-05-06 16:58 25.24640 55.36022 28 ft 19 kts 300°
2026-05-06 16:59 25.24707 55.35896 31 ft 19 kts 301°
2026-05-06 16:59 25.24776 55.35769 29 ft 19 kts 302°
2026-05-06 16:59 25.24853 55.35648 31 ft 19 kts 305°
2026-05-06 16:59 25.24929 55.35527 28 ft 19 kts 305°
2026-05-06 17:00 25.24997 55.35407 30 ft 19 kts 301°
2026-05-06 17:00 25.25066 55.35281 30 ft 18 kts 302°
2026-05-06 17:00 25.25121 55.35255 30 ft 4 kts 29°
2026-05-06 17:00 25.25143 55.35270 28 ft 4 kts 31°
2026-05-06 17:01 25.25165 55.35284 29 ft 4 kts 31°
2026-05-06 17:01 25.25188 55.35299 29 ft 4 kts 30°
2026-05-06 17:01 25.25211 55.35314 30 ft 4 kts 31°
2026-05-06 17:01 25.25219 55.35320 29 ft 0 kts 32°
2026-05-06 17:02 25.25220 55.35320 29 ft 0 kts 32°